Voltar ao catálogo

CZ-6A DEB

AtivoSSO
NORAD 54347·DEBRIS·🇨🇳 China

Lançado Nov 11, 2022 de Taiyuan Satellite Launch Center

Loading…

Próximas Passagens (próximas 24 horas)

TLE

AtualizadoSource: Space-Track

Época: Sep 14, 2026, 12:41 UTC

1 54347U 22151CS  26257.52862147  .00000234  00000-0  10258-3 0  9999
2 54347  98.6622 278.4645 0104611 182.2695 177.8026 14.29592867199676

Acompanhe CZ-6A DEB em tempo real com AllMySat

Download on the App Store